Weather History for Port Angeles, WA

Change the Weather History Date:

Friday, October 18, 2013

  Actual Average Record
Temperature  
Mean Temperature 47 °F -  
Max Temperature 57 °F 56 °F 67 °F (1974)
Min Temperature 37 °F 40 °F 31 °F (1987)
Degree Days  
Heating Degree Days 18    
Moisture  
Dew Point 41 °F    
Average Humidity 92    
Maximum Humidity 100    
Minimum Humidity 62    
Precipitation  
Precipitation 0.00 in - - ()
Sea Level Pressure  
Sea Level Pressure 30.23 in    
Wind  
Wind Speed 3 mph (ESE)    
Max Wind Speed 6 mph    
Max Gust Speed -    
Visibility 5 miles    
Events Fog    
Averages and records for this station are not official NWS values.
T = Trace of Precipitation, MM = Missing Value Source: NWS Daily Summary

Daily Weather History Graph

Daily Weather History Graph

Search for Another Location

Airport:

Trip Planner

Search our weather history database for the weather conditions in past years. The results will help you decide how hot, cold, wet, or windy it might be!

Date:

Astronomy

Oct. 18, 2013 Rise Set
Actual Time 7:38 AM PDT 6:18 PM PDT
Civil Twilight 7:06 AM PDT 6:50 PM PDT
Nautical Twilight 6:30 AM PDT 7:26 PM PDT
Astronomical Twilight 5:54 AM PDT 8:02 PM PDT
Moon 6:09 PM PDT (10/18) 7:20 AM PDT (10/18)
Length of Visible Light 11h 43m
Length of Day
10h 40m
Full, 100% of the Moon is Illuminated
Oct 18
Full
Oct 18
Full
Oct 26
Last Quarter
Nov 3
New
Nov 9
First Quarter

Hourly Weather History & Observations

Time (PDT) Temp. Windchill Dew Point Humidity Pressure Visibility Wind Dir Wind Speed Gust Speed Precip Events Conditions
12:53 AM 41.0 °F 39.0 °F 39.0 °F 93% 30.25 in 10.0 mi SW 3.5 mph - N/A   Clear
1:53 AM 39.9 °F - 37.9 °F 93% 30.26 in 10.0 mi Calm Calm - N/A   Clear
2:53 AM 41.0 °F 38.0 °F 39.0 °F 93% 30.27 in 10.0 mi SE 4.6 mph - N/A   Clear
3:53 AM 39.0 °F - 37.0 °F 93% 30.26 in 10.0 mi Calm Calm - N/A   Clear
4:53 AM 39.0 °F - 37.0 °F 93% 30.26 in 10.0 mi Calm Calm - N/A   Clear
5:53 AM 39.9 °F 37.8 °F 37.9 °F 93% 30.25 in 10.0 mi SE 3.5 mph - N/A   Clear
6:23 AM 39.9 °F 36.7 °F 39.0 °F 97% 30.24 in 7.0 mi ESE 4.6 mph - N/A   Scattered Clouds
6:27 AM 39.0 °F 34.8 °F 39.0 °F 100% 30.24 in 2.5 mi ESE 5.8 mph - N/A   Mostly Cloudy
6:30 AM 39.0 °F 34.8 °F 37.9 °F 96% 30.24 in 1.0 mi ESE 5.8 mph - N/A   Mist
6:32 AM 37.9 °F 33.5 °F 37.9 °F 100% 30.24 in 0.8 mi ESE 5.8 mph - N/A   Mist
6:43 AM 37.9 °F 33.5 °F 37.0 °F 97% 30.24 in 2.0 mi SE 5.8 mph - N/A   Scattered Clouds
6:51 AM 39.2 °F 35.9 °F 37.4 °F 93% 30.23 in 6.0 mi ESE 4.6 mph - N/A   Partly Cloudy
6:53 AM 39.0 °F 35.7 °F 39.0 °F 100% 30.24 in 6.0 mi ESE 4.6 mph - N/A   Partly Cloudy
7:08 AM 37.9 °F 34.4 °F 37.0 °F 97% 30.23 in 1.5 mi East 4.6 mph - N/A   Clear
7:10 AM 37.9 °F 35.5 °F 37.0 °F 97% 30.23 in 1.0 mi East 3.5 mph - N/A   Mist
7:17 AM 37.9 °F - 37.0 °F 97% 30.23 in 0.8 mi Calm Calm - N/A   Mist
7:19 AM 37.9 °F - 37.9 °F 100% 30.23 in 1.2 mi Calm Calm - N/A   Partly Cloudy
7:22 AM 39.0 °F - 37.9 °F 96% 30.23 in 3.0 mi Calm Calm - N/A   Partly Cloudy
7:40 AM 37.9 °F 35.5 °F 37.0 °F 97% 30.25 in 10.0 mi SSE 3.5 mph - N/A   Mostly Cloudy
7:53 AM 37.9 °F 34.4 °F 37.0 °F 97% 30.26 in 10.0 mi SSE 4.6 mph - N/A   Overcast
7:57 AM 39.9 °F 35.8 °F 37.9 °F 93% 30.25 in 0.8 mi SSE 5.8 mph - N/A   Mist
8:06 AM 41.0 °F 39.0 °F 39.9 °F 96% 30.26 in 0.2 mi South 3.5 mph - N/A Fog Fog
8:53 AM 44.1 °F - 43.0 °F 96% 30.27 in 0.5 mi Calm Calm - N/A Fog Fog
9:01 AM 44.1 °F 42.5 °F 43.0 °F 96% 30.26 in 2.0 mi SE 3.5 mph - N/A   Mostly Cloudy
9:08 AM 44.1 °F - 44.1 °F 100% 30.26 in 10.0 mi Calm Calm - N/A   Scattered Clouds
9:53 AM 48.0 °F - 46.0 °F 93% 30.26 in 10.0 mi Calm Calm - N/A   Clear
10:38 AM 46.9 °F - 45.0 °F 93% 30.25 in 2.5 mi NE 3.5 mph - N/A   Scattered Clouds
10:44 AM 46.9 °F - 45.0 °F 93% 30.26 in 1.8 mi East 3.5 mph - N/A   Mostly Cloudy
10:50 AM 46.4 °F 45.2 °F 44.6 °F 93% 30.26 in 0.2 mi Variable 3.5 mph - N/A Fog Fog
10:53 AM 46.9 °F - 45.0 °F 93% 30.27 in 0.2 mi Calm Calm - N/A Fog Fog
11:04 AM 46.0 °F 44.8 °F 45.0 °F 96% 30.26 in 0.2 mi East 3.5 mph - N/A Fog Fog
11:30 AM 46.9 °F - 45.0 °F 93% 30.26 in 0.2 mi ESE 3.5 mph - N/A Fog Fog
11:53 AM 46.9 °F - 45.0 °F 93% 30.27 in 0.2 mi East 4.6 mph - N/A Fog Fog
12:08 PM 46.9 °F - 46.0 °F 97% 30.26 in 1.0 mi ESE 3.5 mph - N/A   Mist
12:32 PM 48.0 °F - 46.0 °F 93% 30.25 in 3.0 mi Calm Calm - N/A   Overcast
12:44 PM 48.0 °F - 46.0 °F 93% 30.25 in 2.0 mi Calm Calm - N/A   Overcast
12:53 PM 48.9 °F - 46.0 °F 90% 30.25 in 2.5 mi Calm Calm - N/A   Overcast
1:01 PM 50.0 °F - 46.0 °F 86% 30.24 in 5.0 mi Calm Calm - N/A   Overcast
1:24 PM 52.0 °F - 46.9 °F 83% 30.23 in 10.0 mi NE 3.5 mph - N/A   Scattered Clouds
1:53 PM 48.9 °F - 46.0 °F 90% 30.23 in 4.0 mi North 4.6 mph - N/A   Partly Cloudy
2:53 PM 54.0 °F - 46.9 °F 77% 30.21 in 10.0 mi ESE 4.6 mph - N/A   Clear
3:53 PM 57.0 °F - 44.1 °F 62% 30.21 in 10.0 mi East 5.8 mph - N/A   Clear
4:53 PM 57.0 °F - 44.1 °F 62% 30.18 in 10.0 mi ESE 5.8 mph - N/A   Clear
5:53 PM 53.1 °F - 43.0 °F 69% 30.17 in 10.0 mi ESE 5.8 mph - N/A   Clear
6:53 PM 48.0 °F - 43.0 °F 83% 30.16 in 10.0 mi Calm Calm - N/A   Clear
7:53 PM 44.1 °F - 42.1 °F 93% 30.18 in 10.0 mi Calm Calm - N/A   Clear
8:53 PM 43.0 °F - 41.0 °F 93% 30.18 in 10.0 mi Calm Calm - N/A   Clear
9:35 PM 42.1 °F - 39.0 °F 89% 30.17 in 10.0 mi Calm Calm - N/A   Partly Cloudy
9:53 PM 42.1 °F - 39.9 °F 92% 30.18 in 8.0 mi Calm Calm - N/A   Scattered Clouds
10:53 PM 39.0 °F 36.8 °F 37.9 °F 96% 30.18 in 9.0 mi SW 3.5 mph - N/A   Clear
11:12 PM 39.9 °F - 37.9 °F 93% 30.17 in 1.8 mi Calm Calm - N/A   Clear
11:15 PM 39.9 °F - 37.9 °F 93% 30.17 in 3.0 mi Calm Calm - N/A   Clear
11:19 PM 39.9 °F - 37.9 °F 93% 30.17 in 2.5 mi Calm Calm - N/A   Partly Cloudy
11:25 PM 39.9 °F - 37.9 °F 93% 30.17 in 0.8 mi Calm Calm - N/A   Mist
11:28 PM 39.9 °F - 37.9 °F 93% 30.17 in 0.2 mi Calm Calm - N/A Fog Fog
11:53 PM 39.9 °F - 39.0 °F 97% 30.17 in 0.2 mi Calm Calm - N/A Fog Fog